Voltar ao catálogo

EWS-G1

AtivoMeteoGEO
NORAD 29155·PAYLOAD·🇺🇸 United States

Lançado May 24, 2006 de Cape Canaveral Space Force Station

Loading…

TLE

AtualizadoSource: Space-Track

Época: Sep 14, 2026, 22:00 UTC

1 29155U 06018A   26257.91732073 -.00000100  00000-0  00000-0 0  9993
2 29155   4.7602  75.2854 0059444 279.9155 258.0634  0.98786442 44136

Acompanhe EWS-G1 em tempo real com AllMySat

Download on the App Store